Flag for Slovenia Weather past 2 weeks in Ljubljana, Slovenia

Now
86 °F

Passing clouds.


Feels Like: 86 °F
Forecast: 58 / 85 °F
Wind: 5 mph from Southwest

Location: Ljubljana / Bezigrad

Current Time: Aug 31, 2015 at 5:49:12 PM

Latest Report: Aug 31, 2015 at 5:00 PM


Visibility: 25 mi

Pressure: 29.96 "Hg

Humidity: 41%

Dew point: 60 °F

Location of LjubljanaLocation

Historic Weather in Ljubljana — Graph

°F

Ljubljana temperature yesterday

Maximum temperature yesterday: 90 °F (at 4:00 PM)
Minimum temperature yesterday: 61 °F (at 7:00 AM)
Average temperature yesterday: 75 °F

Past Weeks' High & Low Weather Summary

 TemperatureHumidityPressure
High90 °F (Aug 30, 4:00 PM)100% (Aug 19, 11:00 PM)30.23 "Hg (Aug 19, 11:00 PM)
Low54 °F (Aug 23, 7:00 AM)37% (Aug 31, 3:00 PM)29.72 "Hg (Aug 17, 3:00 AM)
Average68 °F79%30.04 "Hg
* Reported Aug 16 4:00 PM — Aug 31 4:00 PM, Ljubljana, Weather by CustomWeather, © 2015

Note: Actual official high and low records may vary slightly from our data, if they occured in-between our weather recording intervals... More about our weather records

Advertising

Ljubljana weather history for previous 24 hours

 ConditionsComfort  
Time TempWeatherWind HumidityBarometerVisibility
4:00 PM
Mon, Aug 31
87 °FPassing clouds.6 mph39%29.96 "Hg25 mi
3:00 PM88 °FPassing clouds.7 mph37%29.98 "Hg25 mi
2:00 PM87 °FPassing clouds.5 mph38%29.99 "Hg25 mi
1:00 PM86 °FPassing clouds.6 mph43%29.99 "Hg19 mi
12:00 PM83 °FPassing clouds.2 mph52%30.02 "Hg19 mi
11:00 AM76 °FPassing clouds.1 mph66%30.04 "Hg19 mi
10:00 AM71 °FPassing clouds.1 mph76%30.06 "Hg17 mi
9:00 AM67 °FFog.2 mph91%30.08 "Hg7 mi
8:00 AM65 °FFog.No wind95%30.09 "Hg1 mi
7:00 AM63 °FFog.No wind98%30.09 "Hg1 mi
6:00 AM64 °FFog.No wind96%30.08 "Hg7 mi
5:00 AM65 °FMild.N/A98%30.07 "HgN/A
4:00 AM66 °FMild.No wind94%30.09 "HgN/A
3:00 AM67 °FMild.No wind91%30.09 "HgN/A
2:00 AM69 °FMild.1 mph88%30.10 "HgN/A
1:00 AM71 °FMild.No wind85%30.10 "HgN/A
12:00 AM72 °FMild.1 mph83%30.10 "HgN/A
10:00 PM
Sun, Aug 30
77 °FClear.No wind82%30.09 "Hg25 mi
9:00 PM80 °FPassing clouds.1 mph75%30.08 "Hg25 mi
8:00 PM83 °FPassing clouds.1 mph66%30.06 "Hg25 mi
7:00 PM86 °FScattered clouds.2 mph60%30.06 "Hg25 mi
6:00 PM89 °FPassing clouds.1 mph46%30.05 "Hg25 mi
5:00 PM90 °FPassing clouds.No wind43%30.06 "Hg25 mi
Weather by CustomWeather, © 2015

See weather overviewHow to use our weather pages